Back to catalog

THOR ABLESTAR DEB

AliveLEO
NORAD 133·DEBRIS·🇺🇸 United States

Launched Jun 29, 1961 from Cape Canaveral Space Force Station

Loading…

Next Passes (next 24 hours)

TLE

FreshSource: Space-Track

Epoch: Sep 14, 2026, 05:21 UTC

1 00133U 61015T   26257.22331571  .00000474  00000-0  24292-3 0  9993
2 00133  67.1165 353.2735 0044458  64.8613 295.7087 14.23141474346154

Track THOR ABLESTAR DEB in real time with AllMySat

Download on the App Store